Location: Newark
(47.7394°N, 8.0008°E)
Time: 04:43:54
(UTC+00:00)

N. Korean satellite - Pass Details

Date: 17 December 2019
Orbit: 454 x 508 km, 97.2° (Epoch: 20 January)

Event Time Altitude Azimuth Distance (km) Brightness Sun altitude
Rises 17:20:25 0° 201° (SSW) 2,592 10.8 -16.5°
Reaches altitude 10° 17:22:57 10° 219° (SW) 1,707 10.2 -16.9°
Maximum altitude 17:25:41 20° 267° (W) 1,222 9.5 -17.3°
Drops below altitude 10° 17:28:24 10° 315° (NW) 1,700 9.7 -17.8°
Sets 17:30:55 0° 334° (NNW) 2,578 10.4 -18.2°
